Year,Month,Day,Hour,Minute,Value (Times are PST for windspeed in km/hr)
2014,10,15,00,00,3.90
2014,10,15,00,01,3.80
2014,10,15,00,02,7.40
2014,10,15,00,03,6.80
2014,10,15,00,04,5.50
2014,10,15,00,05,6.40
2014,10,15,00,06,8.20
2014,10,15,00,07,3.90
2014,10,15,00,08,2.80
2014,10,15,00,09,5.80
2014,10,15,00,10,5.20
2014,10,15,00,11,5.60
2014,10,15,00,12,5.80
2014,10,15,00,13,2.30
2014,10,15,00,14,6.50
2014,10,15,00,15,4.80
2014,10,15,00,16,7.00
2014,10,15,00,17,5.60
2014,10,15,00,18,7.60
2014,10,15,00,19,3.50
2014,10,15,00,20,4.80
2014,10,15,00,21,7.30
2014,10,15,00,22,4.40
2014,10,15,00,23,3.20
2014,10,15,00,24,4.00
2014,10,15,00,25,4.10
2014,10,15,00,26,7.00
2014,10,15,00,27,7.20
2014,10,15,00,28,4.40
2014,10,15,00,29,6.30
2014,10,15,00,30,7.00
2014,10,15,00,31,4.50
2014,10,15,00,32,5.00
2014,10,15,00,33,5.60
2014,10,15,00,34,7.70
2014,10,15,00,35,6.20
2014,10,15,00,36,5.00
2014,10,15,00,37,6.40
2014,10,15,00,38,5.40
2014,10,15,00,39,7.50
2014,10,15,00,40,4.70
2014,10,15,00,41,2.50
2014,10,15,00,42,4.00
2014,10,15,00,43,5.80
2014,10,15,00,44,3.80
2014,10,15,00,45,2.50
2014,10,15,00,46,5.50
2014,10,15,00,47,5.10
2014,10,15,00,48,8.10
2014,10,15,00,49,7.30
2014,10,15,00,50,6.50
2014,10,15,00,51,1.60
2014,10,15,00,52,4.70
2014,10,15,00,53,4.80
2014,10,15,00,54,4.60
2014,10,15,00,55,4.40
2014,10,15,00,56,4.80
2014,10,15,00,57,4.90
2014,10,15,00,58,8.10
2014,10,15,00,59,4.00
2014,10,15,01,00,4.50
2014,10,15,01,01,3.90
2014,10,15,01,02,5.40
2014,10,15,01,03,6.10
2014,10,15,01,04,6.00
2014,10,15,01,05,7.30
2014,10,15,01,06,5.00
2014,10,15,01,07,5.40
2014,10,15,01,08,4.70
2014,10,15,01,09,1.70
2014,10,15,01,10,2.60
2014,10,15,01,11,3.90
2014,10,15,01,12,7.30
2014,10,15,01,13,5.30
2014,10,15,01,14,4.10
2014,10,15,01,15,4.10
2014,10,15,01,16,4.40
2014,10,15,01,17,4.50
2014,10,15,01,18,7.50
2014,10,15,01,19,6.70
2014,10,15,01,20,3.90
2014,10,15,01,21,6.40
2014,10,15,01,22,5.20
2014,10,15,01,23,5.30
2014,10,15,01,24,4.70
2014,10,15,01,25,6.10
2014,10,15,01,26,6.40
2014,10,15,01,27,5.10
2014,10,15,01,28,3.60
2014,10,15,01,29,5.40
2014,10,15,01,30,5.10
2014,10,15,01,31,3.40
2014,10,15,01,32,6.10
2014,10,15,01,33,3.40
2014,10,15,01,34,4.10
2014,10,15,01,35,6.10
2014,10,15,01,36,5.00
2014,10,15,01,37,4.10
2014,10,15,01,38,3.90
2014,10,15,01,39,3.70
2014,10,15,01,40,2.60
2014,10,15,01,41,2.30
2014,10,15,01,42,5.30
2014,10,15,01,43,1.30
2014,10,15,01,44,2.40
2014,10,15,01,45,4.10
2014,10,15,01,46,5.20
2014,10,15,01,47,6.40
2014,10,15,01,48,4.10
2014,10,15,01,49,4.10
2014,10,15,01,50,5.20
2014,10,15,01,51,2.20
2014,10,15,01,52,3.40
2014,10,15,01,53,4.80
2014,10,15,01,54,7.30
2014,10,15,01,55,3.20
2014,10,15,01,56,4.50
2014,10,15,01,57,3.60
2014,10,15,01,58,4.30
2014,10,15,01,59,2.90
2014,10,15,02,00,4.10
2014,10,15,02,01,4.50
2014,10,15,02,02,3.60
2014,10,15,02,03,4.40
2014,10,15,02,04,4.40
2014,10,15,02,05,3.40
2014,10,15,02,06,4.50
2014,10,15,02,07,1.50
2014,10,15,02,08,3.40
2014,10,15,02,09,1.50
2014,10,15,02,10,6.20
2014,10,15,02,11,4.40
2014,10,15,02,12,3.20
2014,10,15,02,13,4.40
2014,10,15,02,14,4.90
2014,10,15,02,15,4.90
2014,10,15,02,16,2.30
2014,10,15,02,17,3.20
2014,10,15,02,18,4.50
2014,10,15,02,19,5.40
2014,10,15,02,20,7.00
2014,10,15,02,21,4.60
2014,10,15,02,22,3.10
2014,10,15,02,23,5.40
2014,10,15,02,24,5.30
2014,10,15,02,25,5.90
2014,10,15,02,26,7.00
2014,10,15,02,27,5.20
2014,10,15,02,28,3.90
2014,10,15,02,29,3.80
2014,10,15,02,30,5.40
2014,10,15,02,31,3.80
2014,10,15,02,32,3.80
2014,10,15,02,33,5.60
2014,10,15,02,34,7.00
2014,10,15,02,35,7.00
2014,10,15,02,36,7.40
2014,10,15,02,37,5.40
2014,10,15,02,38,5.20
2014,10,15,02,39,6.00
2014,10,15,02,40,5.30
2014,10,15,02,41,3.10
2014,10,15,02,42,4.10
2014,10,15,02,43,6.70
2014,10,15,02,44,7.00
2014,10,15,02,45,7.60
2014,10,15,02,46,7.70
2014,10,15,02,47,3.00
2014,10,15,02,48,4.70
2014,10,15,02,49,7.00
2014,10,15,02,50,5.00
2014,10,15,02,51,2.20
2014,10,15,02,52,5.50
2014,10,15,02,53,3.60
2014,10,15,02,54,5.20
2014,10,15,02,55,10.00
2014,10,15,02,56,5.40
2014,10,15,02,57,8.40
2014,10,15,02,58,4.80
2014,10,15,02,59,5.60
2014,10,15,03,00,5.80
2014,10,15,03,01,5.30
2014,10,15,03,02,4.10
2014,10,15,03,03,3.20
2014,10,15,03,04,3.50
2014,10,15,03,05,7.00
2014,10,15,03,06,4.00
2014,10,15,03,07,5.70
2014,10,15,03,08,4.90
2014,10,15,03,09,7.00
2014,10,15,03,10,3.70
2014,10,15,03,11,5.40
2014,10,15,03,12,8.50
2014,10,15,03,13,6.10
2014,10,15,03,14,5.80
2014,10,15,03,15,5.70
2014,10,15,03,16,6.10
2014,10,15,03,17,2.40
2014,10,15,03,18,5.30
2014,10,15,03,19,7.30
2014,10,15,03,20,3.40
2014,10,15,03,21,8.10
2014,10,15,03,22,4.10
2014,10,15,03,23,6.50
2014,10,15,03,24,3.00
2014,10,15,03,25,7.90
2014,10,15,03,26,6.70
2014,10,15,03,27,6.30
2014,10,15,03,28,4.40
2014,10,15,03,29,4.30
2014,10,15,03,30,4.40
2014,10,15,03,31,2.90
2014,10,15,03,32,1.00
2014,10,15,03,33,4.40
2014,10,15,03,34,5.10
2014,10,15,03,35,6.40
2014,10,15,03,36,1.30
2014,10,15,03,37,3.10
2014,10,15,03,38,0.10
2014,10,15,03,39,0.10
2014,10,15,03,40,0.50
2014,10,15,03,41,2.90
2014,10,15,03,42,1.70
2014,10,15,03,43,2.10
2014,10,15,03,44,0.50
2014,10,15,03,45,0.80
2014,10,15,03,46,0.80
2014,10,15,03,47,0.00
2014,10,15,03,48,0.50
2014,10,15,03,49,1.00
2014,10,15,03,50,0.10
2014,10,15,03,51,0.00
2014,10,15,03,52,0.00
2014,10,15,03,53,0.50
2014,10,15,03,54,0.20
2014,10,15,03,55,0.00
2014,10,15,03,56,0.10
2014,10,15,03,57,0.00
2014,10,15,03,58,0.10
2014,10,15,03,59,0.50
2014,10,15,04,00,0.10
2014,10,15,04,01,0.00
2014,10,15,04,02,0.00
2014,10,15,04,03,0.00
2014,10,15,04,04,0.10
2014,10,15,04,05,0.00
2014,10,15,04,06,0.00
2014,10,15,04,07,0.00
2014,10,15,04,08,0.00
2014,10,15,04,09,0.00
2014,10,15,04,10,0.10
2014,10,15,04,11,0.10
2014,10,15,04,12,0.00
2014,10,15,04,13,0.00
2014,10,15,04,14,0.00
2014,10,15,04,15,0.00
2014,10,15,04,16,0.00
2014,10,15,04,17,0.10
2014,10,15,04,18,0.00
2014,10,15,04,19,1.10
2014,10,15,04,20,0.50
2014,10,15,04,21,0.00
2014,10,15,04,22,0.00
2014,10,15,04,23,0.00
2014,10,15,04,24,0.00
2014,10,15,04,25,0.00
2014,10,15,04,26,0.00
2014,10,15,04,27,0.00
2014,10,15,04,28,0.00
2014,10,15,04,29,0.00
2014,10,15,04,30,0.10
2014,10,15,04,31,0.00
2014,10,15,04,32,0.10
2014,10,15,04,33,1.20
2014,10,15,04,34,0.00
2014,10,15,04,35,3.10
2014,10,15,04,36,9.30
2014,10,15,04,37,10.10
2014,10,15,04,38,9.50
2014,10,15,04,39,3.40
2014,10,15,04,40,2.60
2014,10,15,04,41,1.70
2014,10,15,04,42,2.20
2014,10,15,04,43,5.10
2014,10,15,04,44,5.60
2014,10,15,04,45,1.90
2014,10,15,04,46,1.90
2014,10,15,04,47,1.60
2014,10,15,04,48,3.10
2014,10,15,04,49,2.50
2014,10,15,04,50,0.70
2014,10,15,04,51,0.20
2014,10,15,04,52,4.30
2014,10,15,04,53,1.90
2014,10,15,04,54,1.60
2014,10,15,04,55,7.40
2014,10,15,04,56,6.60
2014,10,15,04,57,6.00
2014,10,15,04,58,5.60
2014,10,15,04,59,4.80
2014,10,15,05,00,1.70
2014,10,15,05,01,1.50
2014,10,15,05,02,0.80
2014,10,15,05,03,0.70
2014,10,15,05,04,1.20
2014,10,15,05,05,2.10
2014,10,15,05,06,0.30
2014,10,15,05,07,1.80
2014,10,15,05,08,6.00
2014,10,15,05,09,8.10
2014,10,15,05,10,7.80
2014,10,15,05,11,8.10
2014,10,15,05,12,8.10
2014,10,15,05,13,8.10
2014,10,15,05,14,8.10
2014,10,15,05,15,7.70
2014,10,15,05,16,6.90
2014,10,15,05,17,9.40
2014,10,15,05,18,7.40
2014,10,15,05,19,8.20
2014,10,15,05,20,10.30
2014,10,15,05,21,7.10
2014,10,15,05,22,9.30
2014,10,15,05,23,7.40
2014,10,15,05,24,7.50
2014,10,15,05,25,2.10
2014,10,15,05,26,6.70
2014,10,15,05,27,8.10
2014,10,15,05,28,6.30
2014,10,15,05,29,6.50
2014,10,15,05,30,5.20
2014,10,15,05,31,5.10
2014,10,15,05,32,4.80
2014,10,15,05,33,0.40
2014,10,15,05,34,0.70
2014,10,15,05,35,0.40
2014,10,15,05,36,0.10
2014,10,15,05,37,0.00
2014,10,15,05,38,0.00
2014,10,15,05,39,0.10
2014,10,15,05,40,0.00
2014,10,15,05,41,0.10
2014,10,15,05,42,0.70
2014,10,15,05,43,2.80
2014,10,15,05,44,2.00
2014,10,15,05,45,0.40
2014,10,15,05,46,1.80
2014,10,15,05,47,4.10
2014,10,15,05,48,5.90
2014,10,15,05,49,1.60
2014,10,15,05,50,0.50
2014,10,15,05,51,0.00
2014,10,15,05,52,0.40
2014,10,15,05,53,2.60
2014,10,15,05,54,0.80
2014,10,15,05,55,0.10
2014,10,15,05,56,0.00
2014,10,15,05,57,0.00
2014,10,15,05,58,0.10
2014,10,15,05,59,0.00
2014,10,15,06,00,2.90
2014,10,15,06,01,0.00
2014,10,15,06,02,0.10
2014,10,15,06,03,0.10
2014,10,15,06,04,0.00
2014,10,15,06,05,0.00
2014,10,15,06,06,0.00
2014,10,15,06,07,0.00
2014,10,15,06,08,0.10
2014,10,15,06,09,0.00
2014,10,15,06,10,0.00
2014,10,15,06,11,0.90
2014,10,15,06,12,1.60
2014,10,15,06,13,2.80
2014,10,15,06,14,1.10
2014,10,15,06,15,0.90
2014,10,15,06,16,0.80
2014,10,15,06,17,1.50
2014,10,15,06,18,0.10
2014,10,15,06,19,0.00
2014,10,15,06,20,0.00
2014,10,15,06,21,0.00
2014,10,15,06,22,0.10
2014,10,15,06,23,1.60
2014,10,15,06,24,1.90
2014,10,15,06,25,0.10
2014,10,15,06,26,1.80
2014,10,15,06,27,0.00
2014,10,15,06,28,0.00
2014,10,15,06,29,0.10
2014,10,15,06,30,0.00
2014,10,15,06,31,0.00
2014,10,15,06,32,0.20
2014,10,15,06,33,0.10
2014,10,15,06,34,0.00
2014,10,15,06,35,0.60
2014,10,15,06,36,0.00
2014,10,15,06,37,0.00
2014,10,15,06,38,0.00
2014,10,15,06,39,0.00
2014,10,15,06,40,0.00
2014,10,15,06,41,0.00
2014,10,15,06,42,0.00
2014,10,15,06,43,0.00
2014,10,15,06,44,0.00
2014,10,15,06,45,0.00
2014,10,15,06,46,0.00
2014,10,15,06,47,0.00
2014,10,15,06,48,0.00
2014,10,15,06,49,0.00
2014,10,15,06,50,0.00
2014,10,15,06,51,0.00
2014,10,15,06,52,0.00
2014,10,15,06,53,0.00
2014,10,15,06,54,0.00
2014,10,15,06,55,0.00
2014,10,15,06,56,0.00
2014,10,15,06,57,0.00
2014,10,15,06,58,0.00
2014,10,15,06,59,0.00
2014,10,15,07,00,0.00
2014,10,15,07,01,0.00
2014,10,15,07,02,0.00
2014,10,15,07,03,0.00
2014,10,15,07,04,0.00
2014,10,15,07,05,0.00
2014,10,15,07,06,0.00
2014,10,15,07,07,0.00
2014,10,15,07,08,0.00
2014,10,15,07,09,0.00
2014,10,15,07,10,0.00
2014,10,15,07,11,0.40
2014,10,15,07,12,0.50
2014,10,15,07,13,0.00
2014,10,15,07,14,0.70
2014,10,15,07,15,0.00
2014,10,15,07,16,0.40
2014,10,15,07,17,0.00
2014,10,15,07,18,0.00
2014,10,15,07,19,0.00
2014,10,15,07,20,0.10
2014,10,15,07,21,0.20
2014,10,15,07,22,0.10
2014,10,15,07,23,0.00
2014,10,15,07,24,0.00
2014,10,15,07,25,0.10
2014,10,15,07,26,0.00
2014,10,15,07,27,0.00
2014,10,15,07,28,0.10
2014,10,15,07,29,0.00
2014,10,15,07,30,0.00
2014,10,15,07,31,0.40
2014,10,15,07,32,2.10
2014,10,15,07,33,0.20
2014,10,15,07,34,0.80
2014,10,15,07,35,1.60
2014,10,15,07,36,1.80
2014,10,15,07,37,2.90
2014,10,15,07,38,1.50
2014,10,15,07,39,1.70
2014,10,15,07,40,5.10
2014,10,15,07,41,3.70
2014,10,15,07,42,3.60
2014,10,15,07,43,0.20
2014,10,15,07,44,1.80
2014,10,15,07,45,0.70
2014,10,15,07,46,0.10
2014,10,15,07,47,0.00
2014,10,15,07,48,2.00
2014,10,15,07,49,0.20
2014,10,15,07,50,1.80
2014,10,15,07,51,3.90
2014,10,15,07,52,4.70
2014,10,15,07,53,5.40
2014,10,15,07,54,3.00
2014,10,15,07,55,1.90
2014,10,15,07,56,1.80
2014,10,15,07,57,0.80
2014,10,15,07,58,3.90
2014,10,15,07,59,2.40
2014,10,15,08,00,0.10
2014,10,15,08,01,0.40
2014,10,15,08,02,0.00
2014,10,15,08,03,1.10
2014,10,15,08,04,4.00
2014,10,15,08,05,1.50
2014,10,15,08,06,3.10
2014,10,15,08,07,0.80
2014,10,15,08,08,3.00
2014,10,15,08,09,0.70
2014,10,15,08,10,3.80
2014,10,15,08,11,5.00
2014,10,15,08,12,4.20
2014,10,15,08,13,3.40
2014,10,15,08,14,3.00
2014,10,15,08,15,3.40
2014,10,15,08,16,3.60
2014,10,15,08,17,1.80
2014,10,15,08,18,5.00
2014,10,15,08,19,3.40
2014,10,15,08,20,3.80
2014,10,15,08,21,2.60
2014,10,15,08,22,2.20
2014,10,15,08,23,2.90
2014,10,15,08,24,4.30
2014,10,15,08,25,3.60
2014,10,15,08,26,3.60
2014,10,15,08,27,4.50
2014,10,15,08,28,2.20
2014,10,15,08,29,5.00
2014,10,15,08,30,4.30
2014,10,15,08,31,3.20
2014,10,15,08,32,4.90
2014,10,15,08,33,4.40
2014,10,15,08,34,4.00
2014,10,15,08,35,2.80
2014,10,15,08,36,2.50
2014,10,15,08,37,2.60
2014,10,15,08,38,3.10
2014,10,15,08,39,1.10
2014,10,15,08,40,3.20
2014,10,15,08,41,3.40
2014,10,15,08,42,3.40
2014,10,15,08,43,0.40
2014,10,15,08,44,1.50
2014,10,15,08,45,4.00
2014,10,15,08,46,2.10
2014,10,15,08,47,2.10
2014,10,15,08,48,3.00
2014,10,15,08,49,0.50
2014,10,15,08,50,0.30
2014,10,15,08,51,1.80
2014,10,15,08,52,2.00
2014,10,15,08,53,1.80
2014,10,15,08,54,0.30
2014,10,15,08,55,0.80
2014,10,15,08,56,1.80
2014,10,15,08,57,3.40
2014,10,15,08,58,1.20
2014,10,15,08,59,1.80
2014,10,15,09,00,2.00
2014,10,15,09,01,3.40
2014,10,15,09,02,2.70
2014,10,15,09,03,3.10
2014,10,15,09,04,2.10
2014,10,15,09,05,1.50
2014,10,15,09,06,3.90
2014,10,15,09,07,4.10
2014,10,15,09,08,1.40
2014,10,15,09,09,3.70
2014,10,15,09,10,1.80
2014,10,15,09,11,4.50
2014,10,15,09,12,3.00
2014,10,15,09,13,3.10
2014,10,15,09,14,2.50
2014,10,15,09,15,3.30
2014,10,15,09,16,6.10
2014,10,15,09,17,3.20
2014,10,15,09,18,2.30
2014,10,15,09,19,3.70
2014,10,15,09,20,3.30
2014,10,15,09,21,1.70
2014,10,15,09,22,2.20
2014,10,15,09,23,3.50
2014,10,15,09,24,1.60
2014,10,15,09,25,2.50
2014,10,15,09,26,2.20
2014,10,15,09,27,6.10
2014,10,15,09,28,4.50
2014,10,15,09,29,4.80
2014,10,15,09,30,3.90
2014,10,15,09,31,3.40
2014,10,15,09,32,5.40
2014,10,15,09,33,5.40
2014,10,15,09,34,6.20
2014,10,15,09,35,7.40
2014,10,15,09,36,5.90
2014,10,15,09,37,4.90
2014,10,15,09,38,6.40
2014,10,15,09,39,6.30
2014,10,15,09,40,6.40
2014,10,15,09,41,7.50
2014,10,15,09,42,6.80
2014,10,15,09,43,7.60
2014,10,15,09,44,8.50
2014,10,15,09,45,7.70
2014,10,15,09,46,4.80
2014,10,15,09,47,4.70
2014,10,15,09,48,4.90
2014,10,15,09,49,5.80
2014,10,15,09,50,4.80
2014,10,15,09,51,6.00
2014,10,15,09,52,1.10
2014,10,15,09,53,2.20
2014,10,15,09,54,1.40
2014,10,15,09,55,1.80
2014,10,15,09,56,4.40
2014,10,15,09,57,2.80
2014,10,15,09,58,3.00
2014,10,15,09,59,1.90
2014,10,15,10,00,1.70
2014,10,15,10,01,3.20
2014,10,15,10,02,3.20
2014,10,15,10,03,3.00
2014,10,15,10,04,3.40
2014,10,15,10,05,5.30
2014,10,15,10,06,3.80
2014,10,15,10,07,2.80
2014,10,15,10,08,3.10
2014,10,15,10,09,3.20
2014,10,15,10,10,2.40
2014,10,15,10,11,1.70
2014,10,15,10,12,1.20
2014,10,15,10,13,1.80
2014,10,15,10,14,2.30
2014,10,15,10,15,2.50
2014,10,15,10,16,1.90
2014,10,15,10,17,0.70
2014,10,15,10,18,2.70
2014,10,15,10,19,1.90
2014,10,15,10,20,2.60
2014,10,15,10,21,4.40
2014,10,15,10,22,2.80
2014,10,15,10,23,4.20
2014,10,15,10,24,3.20
2014,10,15,10,25,4.90
2014,10,15,10,26,6.40
2014,10,15,10,27,4.40
2014,10,15,10,28,4.50
2014,10,15,10,29,2.80
2014,10,15,10,30,0.60
2014,10,15,10,31,2.10
2014,10,15,10,32,0.20
2014,10,15,10,33,2.50
2014,10,15,10,34,2.70
2014,10,15,10,35,3.60
2014,10,15,10,36,0.40
2014,10,15,10,37,3.10
2014,10,15,10,38,3.80
2014,10,15,10,39,3.80
2014,10,15,10,40,0.60
2014,10,15,10,41,1.80
2014,10,15,10,42,3.80
2014,10,15,10,43,4.10
2014,10,15,10,44,3.90
2014,10,15,10,45,2.10
2014,10,15,10,46,0.00
2014,10,15,10,47,0.50
2014,10,15,10,48,5.30
2014,10,15,10,49,2.00
2014,10,15,10,50,2.80
2014,10,15,10,51,3.00
2014,10,15,10,52,2.10
2014,10,15,10,53,3.40
2014,10,15,10,54,3.40
2014,10,15,10,55,3.60
2014,10,15,10,56,3.10
2014,10,15,10,57,3.40
2014,10,15,10,58,1.80
2014,10,15,10,59,3.00
2014,10,15,11,00,3.80
2014,10,15,11,01,3.50
2014,10,15,11,02,6.40
2014,10,15,11,03,6.40
2014,10,15,11,04,6.40
2014,10,15,11,05,6.40
2014,10,15,11,06,6.40
2014,10,15,11,07,3.60
2014,10,15,11,08,0.40
2014,10,15,11,09,1.10
2014,10,15,11,10,1.10
2014,10,15,11,11,2.80
2014,10,15,11,12,2.00
2014,10,15,11,13,2.60
2014,10,15,11,14,3.80
2014,10,15,11,15,0.70
2014,10,15,11,16,0.90
2014,10,15,11,17,4.50
2014,10,15,11,18,1.60
2014,10,15,11,19,0.50
2014,10,15,11,20,1.60
2014,10,15,11,21,4.70
2014,10,15,11,22,2.50
2014,10,15,11,23,1.80
2014,10,15,11,24,2.40
2014,10,15,11,25,1.40
2014,10,15,11,26,1.80
2014,10,15,11,27,1.50
2014,10,15,11,28,4.30
2014,10,15,11,29,2.80
2014,10,15,11,30,1.80
2014,10,15,11,31,1.40
2014,10,15,11,32,1.20
2014,10,15,11,33,3.40
2014,10,15,11,34,0.80
2014,10,15,11,35,0.20
2014,10,15,11,36,1.60
2014,10,15,11,37,2.40
2014,10,15,11,38,1.60
2014,10,15,11,39,2.00
2014,10,15,11,40,1.50
2014,10,15,11,41,1.80
2014,10,15,11,42,0.00
2014,10,15,11,43,2.40
2014,10,15,11,44,1.50
2014,10,15,11,45,0.30
2014,10,15,11,46,0.80
2014,10,15,11,47,1.30
2014,10,15,11,48,3.40
2014,10,15,11,49,1.80
2014,10,15,11,50,0.80
2014,10,15,11,51,0.90
2014,10,15,11,52,0.00
2014,10,15,11,53,0.10
2014,10,15,11,54,0.40
2014,10,15,11,55,0.10
2014,10,15,11,56,0.10
2014,10,15,11,57,0.80
2014,10,15,11,58,0.90
2014,10,15,11,59,0.40
2014,10,15,12,00,0.20
2014,10,15,12,01,0.10
2014,10,15,12,02,0.30
2014,10,15,12,03,1.20
2014,10,15,12,04,0.20
2014,10,15,12,05,0.70
2014,10,15,12,06,0.20
2014,10,15,12,07,0.80
2014,10,15,12,08,2.10
2014,10,15,12,09,2.70
2014,10,15,12,10,2.00
2014,10,15,12,11,7.00
2014,10,15,12,12,7.20
2014,10,15,12,13,7.40
2014,10,15,12,14,8.60
2014,10,15,12,15,6.10
2014,10,15,12,16,6.10
2014,10,15,12,17,6.90
2014,10,15,12,18,6.50
2014,10,15,12,19,8.00
2014,10,15,12,20,3.20
2014,10,15,12,21,1.30
2014,10,15,12,22,4.10
2014,10,15,12,23,2.10
2014,10,15,12,24,2.40
2014,10,15,12,25,2.10
2014,10,15,12,26,6.70
2014,10,15,12,27,6.00
2014,10,15,12,28,8.90
2014,10,15,12,29,7.60
2014,10,15,12,30,8.40
2014,10,15,12,31,10.00
2014,10,15,12,32,9.30
2014,10,15,12,33,7.90
2014,10,15,12,34,4.40
2014,10,15,12,35,7.40
2014,10,15,12,36,6.10
2014,10,15,12,37,5.40
2014,10,15,12,38,6.50
2014,10,15,12,39,8.40
2014,10,15,12,40,7.50
2014,10,15,12,41,7.70
2014,10,15,12,42,10.70
2014,10,15,12,43,9.30
2014,10,15,12,44,7.90
2014,10,15,12,45,12.00
2014,10,15,12,46,7.60
2014,10,15,12,47,9.40
2014,10,15,12,48,8.40
2014,10,15,12,49,7.50
2014,10,15,12,50,7.50
2014,10,15,12,51,8.50
2014,10,15,12,52,9.90
2014,10,15,12,53,7.90
2014,10,15,12,54,10.40
2014,10,15,12,55,8.70
2014,10,15,12,56,8.30
2014,10,15,12,57,9.60
2014,10,15,12,58,7.80
2014,10,15,12,59,7.30
2014,10,15,13,00,6.70
2014,10,15,13,01,7.30
2014,10,15,13,02,7.40
2014,10,15,13,03,6.90
2014,10,15,13,04,10.00
2014,10,15,13,05,8.30
2014,10,15,13,06,10.00
2014,10,15,13,07,10.50
2014,10,15,13,08,10.50
2014,10,15,13,09,10.00
2014,10,15,13,10,7.20
2014,10,15,13,11,8.20
2014,10,15,13,12,6.10
2014,10,15,13,13,6.90
2014,10,15,13,14,8.40
2014,10,15,13,15,8.30
2014,10,15,13,16,8.70
2014,10,15,13,17,6.60
2014,10,15,13,18,5.70
2014,10,15,13,19,6.00
2014,10,15,13,20,9.90
2014,10,15,13,21,12.60
2014,10,15,13,22,9.00
2014,10,15,13,23,8.10
2014,10,15,13,24,5.80
2014,10,15,13,25,8.70
2014,10,15,13,26,11.00
2014,10,15,13,27,12.80
2014,10,15,13,28,11.20
2014,10,15,13,29,6.50
2014,10,15,13,30,7.60
2014,10,15,13,31,7.10
2014,10,15,13,32,13.50
2014,10,15,13,33,13.30
2014,10,15,13,34,11.50
2014,10,15,13,35,12.40
2014,10,15,13,36,12.60
2014,10,15,13,37,10.70
2014,10,15,13,38,12.40
2014,10,15,13,39,10.10
2014,10,15,13,40,7.70
2014,10,15,13,41,12.80
2014,10,15,13,42,12.60
2014,10,15,13,43,8.00
2014,10,15,13,44,10.70
2014,10,15,13,45,9.20
2014,10,15,13,46,8.90
2014,10,15,13,47,12.10
2014,10,15,13,48,9.40
2014,10,15,13,49,6.10
2014,10,15,13,50,8.40
2014,10,15,13,51,9.20
2014,10,15,13,52,7.80
2014,10,15,13,53,4.70
2014,10,15,13,54,7.80
2014,10,15,13,55,6.70
2014,10,15,13,56,5.40
2014,10,15,13,57,8.00
2014,10,15,13,58,10.10
2014,10,15,13,59,11.90
2014,10,15,14,00,8.90
2014,10,15,14,01,6.50
2014,10,15,14,02,8.60
2014,10,15,14,03,7.00
2014,10,15,14,04,7.30
2014,10,15,14,05,3.70
2014,10,15,14,06,4.30
2014,10,15,14,07,10.00
2014,10,15,14,08,10.10
2014,10,15,14,09,9.20
2014,10,15,14,10,4.90
2014,10,15,14,11,7.80
2014,10,15,14,12,13.60
2014,10,15,14,13,11.10
2014,10,15,14,14,8.80
2014,10,15,14,15,7.80
2014,10,15,14,16,10.40
2014,10,15,14,17,10.00
2014,10,15,14,18,8.30
2014,10,15,14,19,7.30
2014,10,15,14,20,9.50
2014,10,15,14,21,5.10
2014,10,15,14,22,5.70
2014,10,15,14,23,7.70
2014,10,15,14,24,6.30
2014,10,15,14,25,7.90
2014,10,15,14,26,8.40
2014,10,15,14,27,11.00
2014,10,15,14,28,8.50
2014,10,15,14,29,8.90
2014,10,15,14,30,8.80
2014,10,15,14,31,10.40
2014,10,15,14,32,7.80
2014,10,15,14,33,8.40
2014,10,15,14,34,8.30
2014,10,15,14,35,6.20
2014,10,15,14,36,9.60
2014,10,15,14,37,10.70
2014,10,15,14,38,10.70
2014,10,15,14,39,10.30
2014,10,15,14,40,8.70
2014,10,15,14,41,8.90
2014,10,15,14,42,7.20
2014,10,15,14,43,7.20
2014,10,15,14,44,8.60
2014,10,15,14,45,7.40
2014,10,15,14,46,4.80
2014,10,15,14,47,8.60
2014,10,15,14,48,4.40
2014,10,15,14,49,6.30
2014,10,15,14,50,9.80
2014,10,15,14,51,10.00
2014,10,15,14,52,8.70
2014,10,15,14,53,8.30
2014,10,15,14,54,7.20
2014,10,15,14,55,4.40
2014,10,15,14,56,9.70
2014,10,15,14,57,10.00
2014,10,15,14,58,9.00
2014,10,15,14,59,11.30
2014,10,15,15,00,6.40
2014,10,15,15,01,4.20
2014,10,15,15,02,4.50
2014,10,15,15,03,5.60
2014,10,15,15,04,1.40
2014,10,15,15,05,6.70
2014,10,15,15,06,7.60
2014,10,15,15,07,8.60
2014,10,15,15,08,8.00
2014,10,15,15,09,9.60
2014,10,15,15,10,9.60
2014,10,15,15,11,9.60
2014,10,15,15,12,9.00
2014,10,15,15,13,7.90
2014,10,15,15,14,11.50
2014,10,15,15,15,10.60
2014,10,15,15,16,6.40
2014,10,15,15,17,6.10
2014,10,15,15,18,7.80
2014,10,15,15,19,6.00
2014,10,15,15,20,5.30
2014,10,15,15,21,4.30
2014,10,15,15,22,6.10
2014,10,15,15,23,4.30
2014,10,15,15,24,6.00
2014,10,15,15,25,4.10
2014,10,15,15,26,3.40
2014,10,15,15,27,3.60
2014,10,15,15,28,7.10
2014,10,15,15,29,4.10
2014,10,15,15,30,4.10
2014,10,15,15,31,4.20
2014,10,15,15,32,10.60
2014,10,15,15,33,13.10
2014,10,15,15,34,7.80
2014,10,15,15,35,10.40
2014,10,15,15,36,10.90
2014,10,15,15,37,9.80
2014,10,15,15,38,11.30
2014,10,15,15,39,6.80
2014,10,15,15,40,9.20
2014,10,15,15,41,9.40
2014,10,15,15,42,9.70
2014,10,15,15,43,11.50
2014,10,15,15,44,10.70
2014,10,15,15,45,7.70
2014,10,15,15,46,6.90
2014,10,15,15,47,10.00
2014,10,15,15,48,9.00
2014,10,15,15,49,7.50
2014,10,15,15,50,7.10
2014,10,15,15,51,7.60
2014,10,15,15,52,3.90
2014,10,15,15,53,10.50
2014,10,15,15,54,10.10
2014,10,15,15,55,9.80
2014,10,15,15,56,11.30
2014,10,15,15,57,11.90
2014,10,15,15,58,9.00
2014,10,15,15,59,8.00
2014,10,15,16,00,6.10
2014,10,15,16,01,7.90
2014,10,15,16,02,8.50
2014,10,15,16,03,5.80
2014,10,15,16,04,10.90
2014,10,15,16,05,7.50
2014,10,15,16,06,5.90
2014,10,15,16,07,4.60
2014,10,15,16,08,5.20
2014,10,15,16,09,7.70
2014,10,15,16,10,11.90
2014,10,15,16,11,9.40
2014,10,15,16,12,11.80
2014,10,15,16,13,8.70
2014,10,15,16,14,10.40
2014,10,15,16,15,10.90
2014,10,15,16,16,11.90
2014,10,15,16,17,8.30
2014,10,15,16,18,6.70
2014,10,15,16,19,6.10
2014,10,15,16,20,7.50
2014,10,15,16,21,9.40
2014,10,15,16,22,7.10
2014,10,15,16,23,7.70
2014,10,15,16,24,10.00
2014,10,15,16,25,6.60
2014,10,15,16,26,7.40
2014,10,15,16,27,9.00
2014,10,15,16,28,9.60
2014,10,15,16,29,9.10
2014,10,15,16,30,10.30
2014,10,15,16,31,11.70
2014,10,15,16,32,11.30
2014,10,15,16,33,10.80
2014,10,15,16,34,10.30
2014,10,15,16,35,10.80
2014,10,15,16,36,9.20
2014,10,15,16,37,6.40
2014,10,15,16,38,7.20
2014,10,15,16,39,9.40
2014,10,15,16,40,10.50
2014,10,15,16,41,8.10
2014,10,15,16,42,7.60
2014,10,15,16,43,9.10
2014,10,15,16,44,8.10
2014,10,15,16,45,8.10
2014,10,15,16,46,6.30
2014,10,15,16,47,8.10
2014,10,15,16,48,9.10
2014,10,15,16,49,7.70
2014,10,15,16,50,9.30
2014,10,15,16,51,9.70
2014,10,15,16,52,8.60
2014,10,15,16,53,6.40
2014,10,15,16,54,7.30
2014,10,15,16,55,3.60
2014,10,15,16,56,6.60
2014,10,15,16,57,6.80
2014,10,15,16,58,3.00
2014,10,15,16,59,9.70
2014,10,15,17,00,7.60
2014,10,15,17,01,5.30
2014,10,15,17,02,7.10
2014,10,15,17,03,8.90
2014,10,15,17,04,7.80
2014,10,15,17,05,8.70
2014,10,15,17,06,7.10
2014,10,15,17,07,6.70
2014,10,15,17,08,6.40
2014,10,15,17,09,7.30
2014,10,15,17,10,6.10
2014,10,15,17,11,7.60
2014,10,15,17,12,6.60
2014,10,15,17,13,5.40
2014,10,15,17,14,8.00
2014,10,15,17,15,8.60
2014,10,15,17,16,4.30
2014,10,15,17,17,2.00
2014,10,15,17,18,5.50
2014,10,15,17,19,5.90
2014,10,15,17,20,4.60
2014,10,15,17,21,0.50
2014,10,15,17,22,0.20
2014,10,15,17,23,1.10
2014,10,15,17,24,2.40
2014,10,15,17,25,7.10
2014,10,15,17,26,5.90
2014,10,15,17,27,4.90
2014,10,15,17,28,5.30
2014,10,15,17,29,8.30
2014,10,15,17,30,11.40
2014,10,15,17,31,7.10
2014,10,15,17,32,9.00
2014,10,15,17,33,8.80
2014,10,15,17,34,7.30
2014,10,15,17,35,7.30
2014,10,15,17,36,3.20
2014,10,15,17,37,2.10
2014,10,15,17,38,6.30
2014,10,15,17,39,6.10
2014,10,15,17,40,9.70
2014,10,15,17,41,8.50
2014,10,15,17,42,7.00
2014,10,15,17,43,6.70
2014,10,15,17,44,6.80
2014,10,15,17,45,8.70
2014,10,15,17,46,6.60
2014,10,15,17,47,7.40
2014,10,15,17,48,6.40
2014,10,15,17,49,7.90
2014,10,15,17,50,7.20
2014,10,15,17,51,8.50
2014,10,15,17,52,8.60
2014,10,15,17,53,9.40
2014,10,15,17,54,1.20
2014,10,15,17,55,5.60
2014,10,15,17,56,9.20
2014,10,15,17,57,8.60
2014,10,15,17,58,7.30
2014,10,15,17,59,4.20
2014,10,15,18,00,7.30
2014,10,15,18,01,4.10
2014,10,15,18,02,4.50
2014,10,15,18,03,6.60